Temp_Advection
nan nan nan nan nan nan nan nan nan nan nan nan nan nan nan nan nan nan nan nan nan nan nan nan nan nan nan nan nan nan nan nan nan nan nan nan nan nan nan nan nan nan nan nan nan nan nan nan nan nan nan nan
nan 1 0 -0 -0 0 0 0 0 0 0 0 1 0 0 0 0 0 0 0 0 0 0 -0 -0 0 0 0 0 0 0 0 0 0 0 0 -0 -0 -0 -0 -0 -0 0 0 0 0 0 0 0 0 0 nan
nan 0 -0 -0 -0 0 0 0 0 0 0 0 0 0 -0 0 0 0 0 0 0 0 0 -0 -0 0 0 0 0 0 0 0 0 0 0 -0 -0 0 0 0 0 0 -0 0 0 0 0 0 0 0 0 nan
nan 0 -0 -0 -0 0 0 0 0 0 0 0 -0 0 0 0 0 0 0 0 0 0 0 -0 0 0 0 0 0 0 0 0 0 0 0 0 0 1 1 1 0 0 0 0 0 0 0 0 0 0 0 nan
nan -0 -0 -0 -0 -0 0 0 0 0 0 0 0 0 0 0 0 0 1 0 0 -0 0 0 0 0 0 0 0 0 0 0 0 0 0 0 1 1 1 1 1 0 0 0 0 0 0 0 0 0 0 nan
nan -0 -0 -0 -0 -0 -0 0 0 0 0 0 0 0 1 1 1 1 1 0 -0 -0 0 0 0 0 0 0 0 0 0 0 0 0 0 1 1 1 1 1 1 0 0 0 0 0 0 0 0 0 0 nan
nan -0 -0 -0 -0 0 0 0 0 0 -0 0 0 0 1 1 0 1 0 -0 -0 0 0 0 0 0 0 0 0 0 0 0 0 0 1 1 1 0 0 0 0 0 0 0 0 0 0 0 0 0 0 nan
nan 0 0 0 0 0 0 0 1 1 0 1 1 1 1 0 0 0 0 -0 0 0 0 0 0 0 0 0 0 0 0 0 0 1 1 1 1 0 0 -0 -0 0 0 0 0 0 0 0 0 0 0 nan
nan 0 0 0 1 1 1 1 1 1 1 1 1 1 0 0 1 0 0 0 0 0 0 0 0 0 0 0 0 0 0 0 1 1 1 1 1 0 0 -0 -0 -0 0 0 0 0 0 0 0 0 0 nan
nan -0 -0 0 0 0 0 0 0 0 0 0 0 0 0 1 1 1 1 1 1 0 0 0 0 0 1 0 0 0 0 1 1 1 1 1 1 0 0 0 0 -0 -0 -0 0 -0 0 -0 0 0 0 nan
nan 0 0 0 0 0 -0 0 0 -0 -0 -0 0 0 0 1 1 1 1 0 0 0 0 0 0 1 1 0 0 0 0 0 1 1 1 1 1 0 0 0 0 0 0 0 0 0 0 0 0 0 0 nan
nan 1 0 0 0 0 0 0 0 -0 -0 -0 -0 0 0 0 1 1 0 0 -0 0 0 0 1 1 0 0 0 0 0 0 0 0 0 0 0 0 1 1 0 0 0 0 0 0 0 0 0 0 0 nan
nan 1 0 0 0 0 0 0 0 0 -0 -0 -0 0 1 1 1 0 0 -0 -0 0 0 0 0 0 0 0 0 0 0 0 0 0 0 0 0 0 1 0 0 1 1 1 1 1 1 0 0 0 0 nan
nan 0 0 0 0 0 1 1 1 1 -0 -0 1 1 1 1 0 0 0 -0 0 0 0 0 0 0 0 0 0 0 0 0 0 1 1 1 1 1 1 0 1 1 1 1 1 1 0 0 0 0 0 nan
nan 1 0 0 1 1 1 1 1 1 0 1 1 1 1 0 0 0 0 0 0 0 1 0 0 0 0 0 0 0 0 0 0 1 0 0 1 1 1 1 1 1 1 1 0 0 0 0 0 0 0 nan
nan 0 0 1 1 1 1 1 1 1 1 1 1 0 0 0 0 0 0 0 0 0 0 0 0 0 0 0 -0 -0 0 0 0 0 0 0 0 0 1 1 1 0 0 0 0 0 0 0 0 0 0 nan
nan 0 1 1 1 1 1 1 1 1 0 0 0 1 0 0 0 0 0 0 0 0 0 0 0 0 0 0 0 -0 -0 -0 -0 0 0 0 0 0 0 0 0 0 0 0 0 0 0 0 0 0 0 nan
nan 1 1 1 1 1 1 1 1 1 0 0 1 1 0 0 1 0 0 0 0 0 0 0 0 0 0 0 0 0 -0 -0 0 0 0 0 0 0 0 0 0 0 1 0 0 1 0 0 0 0 0 nan
nan 1 1 1 1 2 1 0 1 1 1 1 1 1 1 1 1 1 0 1 1 0 0 0 0 -0 -0 0 0 0 0 0 0 0 0 0 0 0 0 0 0 0 0 0 0 0 0 0 0 0 0 nan
nan 0 0 -0 0 1 -0 0 1 1 1 1 1 1 1 1 1 1 0 1 1 0 0 0 0 0 0 0 0 0 0 0 0 0 0 0 0 0 0 0 0 0 0 0 0 0 0 0 0 0 0 nan
nan 0 -0 -0 0 -0 -0 -0 0 1 1 1 1 1 1 1 1 1 1 1 1 1 0 0 0 0 0 0 0 0 0 0 0 0 1 1 0 1 0 0 0 0 0 0 0 0 0 0 0 0 0 nan
nan 0 0 -0 0 1 0 1 3 4 2 0 0 0 1 1 1 1 1 1 1 1 1 1 1 1 1 0 0 0 0 0 0 0 0 0 0 0 0 0 0 0 0 0 1 0 0 0 0 0 0 nan
nan 1 0 0 1 1 2 4 6 5 1 -0 0 1 1 2 2 1 1 0 0 0 0 1 1 1 1 0 0 0 -0 -0 0 0 0 0 0 0 0 0 1 1 1 1 1 1 1 0 1 1 1 nan
nan 1 1 1 1 1 2 4 3 0 -1 1 2 3 4 3 1 1 0 0 1 1 1 1 0 1 1 1 0 0 -0 -0 0 0 0 0 0 0 0 0 1 1 1 1 1 1 1 1 0 0 0 nan
nan 1 1 1 1 1 2 2 -0 -1 0 2 4 4 3 1 1 1 1 1 2 2 1 1 1 1 1 1 1 1 1 1 1 1 1 0 0 0 0 1 1 0 1 1 0 0 0 1 1 1 1 nan
nan 1 1 0 0 1 1 1 1 1 2 2 1 1 0 0 1 1 2 2 3 2 2 1 2 2 2 1 1 1 2 1 1 1 1 1 0 0 1 1 0 0 0 1 0 0 0 1 1 1 1 nan
nan 1 0 0 0 1 1 1 1 0 -0 -0 -0 0 0 0 0 1 2 3 3 2 2 2 1 1 0 0 1 1 1 1 1 1 1 1 1 1 1 1 0 1 0 0 1 1 1 1 0 1 1 nan
nan 1 1 1 1 1 1 1 1 -0 -0 1 1 2 1 0 1 2 3 2 1 1 1 1 0 -0 0 1 1 1 1 1 1 1 1 1 1 1 1 1 1 1 1 0 0 0 0 0 -0 -0 -0 nan
nan 1 1 1 1 1 1 1 1 1 2 3 3 3 2 2 4 4 2 1 1 1 1 1 1 1 2 2 2 2 2 2 1 1 1 1 1 1 1 1 1 1 1 1 0 0 -0 -0 -0 -0 -0 nan
nan 2 2 1 1 1 1 1 1 2 3 3 3 2 2 3 2 2 1 1 2 2 3 3 2 3 3 2 2 2 2 1 1 1 1 1 1 1 1 1 1 1 0 1 1 0 0 0 -0 -0 0 nan
nan nan nan nan nan nan nan nan nan nan nan nan nan nan nan nan nan nan nan nan nan nan nan nan nan nan nan nan nan nan nan nan nan nan nan nan nan nan nan nan nan nan nan nan nan nan nan nan nan nan nan nan
Wind_Speed
22 20 20 21 21 22 22 23 24 23 23 23 22 21 22 24 24 24 22 19 16 13 10 9 7 7 8 8 8 7 7 7 8 9 10 11 11 10 10 10 9 9 8 9 9 9 9 9 9 9 9 8
23 20 20 21 22 22 22 24 25 24 24 23 23 23 24 25 24 22 20 18 15 12 10 8 7 6 8 8 8 7 7 7 8 9 11 12 12 11 11 11 10 9 9 8 8 8 8 9 9 9 10 10
23 20 19 21 22 23 24 25 25 25 25 24 25 26 26 26 24 21 18 17 16 13 10 8 7 7 7 8 8 8 7 8 9 10 11 13 13 13 13 12 11 10 9 8 8 7 8 8 8 9 9 10
24 20 20 21 22 23 24 25 26 26 26 26 27 28 26 25 23 21 18 18 18 15 11 9 8 7 7 7 8 8 9 9 10 10 11 13 14 14 14 13 12 11 10 9 8 7 7 7 8 9 9 10
24 21 21 22 23 24 25 25 27 27 27 27 27 27 26 24 22 21 19 17 16 14 12 10 9 7 6 7 8 9 9 10 10 10 12 13 14 15 14 14 13 11 10 9 8 8 7 7 7 8 9 9
25 24 23 24 25 25 26 25 26 27 28 27 26 26 26 25 22 21 18 15 13 13 11 10 8 7 7 7 7 9 10 10 11 11 13 15 16 16 15 15 14 13 12 10 9 8 8 8 8 8 8 9
28 27 26 26 27 28 28 26 27 29 28 27 27 26 24 23 21 19 16 13 13 12 12 11 9 8 8 8 8 9 10 10 11 13 15 17 17 17 17 16 15 14 13 12 11 10 9 8 8 8 8 8
30 30 28 29 29 30 31 29 30 31 29 28 28 29 27 22 20 18 16 15 15 14 13 13 12 11 10 9 9 9 11 12 13 14 16 17 18 18 17 16 15 15 13 13 12 11 10 9 8 9 9 9
32 33 32 32 32 33 33 31 32 32 29 28 27 28 28 25 24 21 20 19 17 15 14 13 12 12 12 11 10 10 12 13 15 16 18 18 19 18 18 17 16 15 14 13 12 11 11 10 9 9 10 9
33 36 37 35 35 36 35 32 31 31 28 26 25 25 26 26 26 22 20 19 17 15 14 13 12 14 14 12 12 12 13 14 16 17 18 19 19 19 18 18 17 16 15 14 13 12 11 11 11 10 11 11
34 37 39 37 36 37 36 32 31 30 26 25 24 23 25 25 23 20 18 17 15 14 13 13 14 15 14 13 12 13 14 15 17 18 19 19 19 19 19 18 17 16 15 14 14 13 12 12 11 11 11 11
35 37 39 37 35 36 35 32 31 30 26 23 22 22 22 22 21 19 17 16 15 14 13 14 15 15 14 13 14 14 15 15 17 18 19 19 19 19 19 18 17 17 16 15 14 14 13 13 12 12 11 11
35 36 37 37 36 36 36 34 33 31 28 24 23 24 24 22 21 20 18 16 15 14 14 15 14 14 14 14 15 15 16 16 17 19 19 19 19 18 18 18 17 17 16 15 15 14 13 13 12 12 11 10
36 33 36 39 37 37 38 37 35 33 29 26 26 27 26 23 21 20 18 17 16 15 15 15 14 14 14 14 15 15 16 17 17 18 19 19 19 19 18 18 17 17 16 15 15 14 13 12 12 11 10 10
37 34 35 38 39 41 42 39 36 33 30 28 28 28 26 24 22 21 19 18 16 17 17 16 15 14 14 14 15 16 16 17 17 17 17 18 17 18 17 17 17 16 15 15 14 13 12 12 11 11 11 10
36 35 35 39 44 46 44 41 38 34 33 32 30 28 27 25 25 23 20 19 18 17 18 17 15 14 14 14 15 16 16 17 17 17 17 17 17 17 16 16 16 15 14 14 13 13 12 12 11 11 11 10
36 36 37 41 45 46 44 43 40 37 36 34 31 30 29 28 26 25 23 21 19 19 18 17 15 15 14 14 14 14 15 15 16 17 17 17 17 17 16 16 16 15 14 13 13 13 12 11 11 11 10 10
35 39 39 43 45 45 45 44 41 38 36 34 33 33 31 29 28 28 26 24 22 21 19 17 16 16 16 15 14 14 14 14 15 15 16 16 16 16 16 15 15 15 14 14 13 12 12 11 11 10 10 10
26 32 34 42 48 48 44 41 39 38 37 36 36 35 34 32 32 32 30 28 26 24 22 19 18 18 18 17 16 16 16 16 15 15 15 15 15 15 15 15 15 15 14 14 13 12 12 11 11 10 10 9
19 22 22 28 37 43 44 41 40 42 41 39 38 38 37 36 35 34 33 31 29 27 25 22 20 20 19 18 17 17 17 17 16 15 15 15 15 15 15 15 14 14 14 13 13 12 11 11 10 10 10 10
20 22 23 24 26 32 37 38 39 43 43 41 41 40 39 39 38 37 36 35 32 30 28 25 23 22 21 19 18 18 18 17 15 14 14 15 15 15 15 15 15 15 15 14 13 12 12 11 11 10 10 10
23 24 26 29 31 33 36 39 44 48 47 44 42 41 41 40 40 39 38 36 34 32 30 28 25 24 23 20 19 19 18 17 15 13 12 13 14 15 15 15 16 16 16 15 14 13 12 11 11 10 10 10
23 26 27 30 34 37 38 42 46 47 47 44 41 42 43 43 42 40 38 36 34 33 32 30 28 27 25 23 21 20 20 18 16 14 13 12 12 13 14 15 15 16 16 16 15 14 13 12 11 11 10 9
22 25 28 30 32 35 38 40 39 36 39 42 43 46 46 45 43 41 39 38 37 36 34 32 30 30 28 27 25 24 22 20 18 17 16 14 13 13 14 15 15 16 16 16 15 14 13 12 11 10 10 9
22 23 26 28 29 32 35 37 36 35 37 40 41 43 42 41 41 41 41 40 40 39 38 35 33 33 32 31 30 28 26 24 21 20 19 17 15 14 14 15 16 16 14 14 15 15 13 12 11 10 9 9
23 24 25 27 28 30 33 35 36 37 38 37 37 37 37 38 39 40 40 41 41 39 39 37 35 34 33 32 31 30 28 26 24 22 21 19 17 16 16 16 17 17 16 14 14 14 14 14 12 11 10 9
24 25 26 27 28 30 32 34 35 33 32 33 35 36 38 37 36 36 37 39 40 38 37 37 35 32 30 29 29 29 27 25 24 23 22 19 17 16 16 16 17 18 17 16 14 13 12 14 13 10 11 11
26 27 27 28 28 30 31 32 34 34 34 36 37 38 38 37 37 38 37 36 36 35 34 34 33 31 30 29 29 29 27 25 24 22 21 19 16 15 16 17 17 18 17 16 17 15 11 12 11 9 11 14
28 29 29 30 30 30 31 32 34 36 38 39 39 39 39 38 39 38 37 36 35 34 34 34 34 34 33 32 31 29 27 25 24 22 21 19 17 16 16 16 17 18 17 16 18 16 12 11 9 9 13 14
30 30 31 31 31 31 31 33 35 36 37 37 36 36 36 36 35 34 34 34 33 33 32 32 32 32 33 31 29 28 26 25 23 22 20 18 16 16 15 15 17 18 17 17 18 16 13 11 9 10 12 12
31 31 31 31 31 31 32 34 35 36 36 35 34 34 33 33 33 34 34 33 32 31 28 26 25 26 27 27 26 26 24 24 22 20 17 15 14 14 14 15 16 18 17 17 18 16 14 12 9 9 11 11
Wind_Direction
206 213 209 204 201 194 189 190 193 193 193 195 197 198 201 201 202 206 209 216 222 229 237 237 220 189 181 178 190 195 191 192 183 182 180 172 170 169 168 165 162 157 150 143 136 130 124 120 118 117 120 123
207 212 208 203 199 192 190 193 193 193 194 195 197 199 203 205 204 206 211 216 219 227 238 235 219 197 185 181 187 193 194 196 191 188 182 176 177 176 172 169 168 164 158 151 142 135 127 122 120 121 124 125
208 212 209 203 199 195 192 194 194 195 197 198 199 200 203 206 207 205 205 214 220 226 239 239 223 207 193 186 187 194 197 198 198 194 185 183 181 177 174 173 173 169 164 158 150 141 130 126 123 125 125 122
210 211 209 203 199 198 195 196 197 196 197 199 201 203 205 207 208 207 206 213 218 225 239 241 225 213 201 192 189 196 200 201 203 198 191 189 182 176 175 175 174 171 168 165 158 148 138 134 130 130 125 122
208 210 209 205 200 198 198 198 198 197 196 198 200 203 208 209 206 207 206 204 213 227 239 235 222 213 206 199 194 198 203 203 205 200 191 187 181 175 174 175 174 173 172 170 165 158 149 144 139 136 127 124
207 208 207 206 203 200 199 200 202 202 202 204 205 204 207 207 203 203 203 203 218 234 237 230 224 221 220 214 205 204 206 204 205 198 187 183 180 176 176 177 177 176 175 174 171 166 160 154 148 141 131 129
210 206 206 206 205 202 200 201 204 205 206 211 215 212 206 203 205 208 209 218 229 231 229 230 234 238 239 235 222 212 206 201 200 194 185 184 183 181 179 179 181 180 178 177 176 173 168 163 155 146 138 137
212 206 204 203 203 203 200 201 203 203 205 211 217 217 214 215 222 222 222 228 228 222 224 229 235 242 244 241 230 215 203 195 192 189 185 185 185 184 183 183 185 184 183 182 180 178 173 168 160 151 147 147
212 209 205 202 202 202 202 202 203 204 206 209 213 216 219 227 229 225 223 224 220 217 220 223 229 237 239 236 226 211 200 192 188 186 186 185 185 186 186 186 187 186 186 186 184 181 177 171 164 157 154 154
215 212 207 204 202 202 204 205 204 204 207 208 211 215 218 223 222 216 213 212 210 210 215 221 231 237 235 228 218 204 195 190 187 185 185 185 185 186 187 188 189 189 188 188 187 183 179 173 167 163 161 161
217 214 208 205 204 205 205 205 204 204 205 209 212 215 215 216 217 211 205 205 206 209 217 228 237 235 227 218 209 198 191 189 187 185 185 185 186 187 187 188 189 190 189 189 188 184 180 175 172 169 166 165
223 217 212 208 207 208 208 205 204 204 205 210 216 218 216 217 217 211 207 208 208 213 222 231 232 225 218 210 201 195 189 188 188 185 185 186 186 187 187 187 189 189 189 189 187 184 182 178 175 173 170 169
231 222 216 213 212 210 209 206 204 203 204 210 220 223 221 222 221 214 211 210 211 216 224 225 220 214 211 204 198 194 188 186 188 185 185 186 187 188 188 187 188 189 189 189 187 185 184 181 178 177 175 174
236 230 222 219 217 213 211 208 204 201 202 210 220 222 220 219 220 218 213 210 212 218 220 215 209 208 205 199 195 193 188 184 186 187 185 185 186 187 187 187 188 188 189 189 188 187 185 184 182 181 181 180
237 235 227 221 217 214 212 209 205 201 201 207 214 216 215 213 212 211 209 209 213 215 212 206 201 200 198 194 190 188 188 185 183 185 185 185 185 186 186 187 186 186 187 187 187 187 187 188 188 188 188 189
234 233 228 221 214 209 209 207 203 201 201 204 209 211 209 207 205 203 205 208 211 209 204 201 199 195 192 190 186 181 183 184 183 184 185 186 185 185 187 188 187 186 186 189 189 189 190 192 193 194 195 197
233 231 229 224 213 206 207 207 202 201 202 204 208 208 204 203 203 201 203 205 207 205 199 199 196 190 185 182 181 178 177 181 182 183 185 186 186 186 187 188 189 189 189 192 193 193 193 194 195 197 200 203
234 225 223 222 217 210 207 203 201 201 203 206 207 205 204 203 203 201 201 203 204 202 197 196 192 188 183 177 177 176 174 178 179 181 185 187 187 186 187 188 189 189 191 192 193 193 192 194 197 200 204 208
239 225 219 216 213 210 206 202 203 205 206 208 208 205 204 203 203 202 200 201 203 200 196 195 189 184 183 179 179 177 174 174 175 177 181 184 186 185 185 187 189 189 190 192 194 195 195 197 202 206 213 219
253 242 237 222 213 208 204 203 205 206 207 208 208 207 205 204 203 201 200 201 202 200 197 196 190 183 181 180 180 180 178 174 174 177 181 184 186 187 187 188 191 192 193 197 200 202 204 207 213 218 224 229
258 249 245 240 235 222 211 209 210 210 210 210 208 207 206 206 204 202 202 202 201 200 198 197 194 187 182 180 177 180 182 181 181 183 189 192 191 193 196 197 199 201 202 205 207 211 213 216 220 225 229 231
261 252 246 243 242 233 225 223 217 210 209 210 210 209 207 208 206 204 203 203 202 201 199 197 196 192 187 183 178 178 179 181 183 187 193 200 199 200 204 207 209 210 210 211 212 214 215 218 220 221 224 224
263 256 249 245 240 232 228 224 215 205 201 205 212 213 210 209 207 206 204 205 206 205 202 199 196 195 192 187 182 180 180 181 184 189 194 200 206 207 208 213 216 217 216 213 213 214 212 211 212 212 211 211
261 257 248 244 240 234 229 223 217 208 201 203 211 213 210 206 204 205 206 206 208 208 207 204 200 198 195 192 188 185 187 188 189 191 193 198 206 210 210 210 211 214 217 214 209 208 209 206 204 207 206 206
252 253 248 244 242 239 234 226 220 218 213 209 210 210 207 204 204 206 207 208 208 207 207 206 205 203 198 195 192 190 190 192 192 192 193 197 203 211 214 210 204 202 205 210 204 195 195 197 199 203 205 209
247 246 246 244 244 243 239 232 224 219 216 214 213 213 210 209 208 207 207 209 209 207 206 207 207 205 201 196 194 192 191 191 191 191 193 197 201 206 210 210 205 198 190 195 206 199 189 185 187 195 202 207
243 242 242 242 243 244 240 234 228 224 223 224 222 220 217 215 214 213 211 210 208 207 208 208 208 208 205 202 199 197 195 193 194 195 194 196 200 202 204 206 204 199 192 189 195 196 191 185 179 184 201 206
239 239 239 239 241 243 241 236 231 228 229 229 227 224 222 221 220 218 215 212 210 211 211 210 211 212 211 209 206 203 200 198 199 199 197 196 197 200 202 205 200 195 195 194 189 185 185 188 179 184 209 209
235 236 235 235 235 236 237 236 232 227 226 225 223 221 220 221 220 217 214 213 214 215 215 213 212 214 213 210 207 204 202 202 202 201 202 199 195 196 200 208 207 197 195 198 195 192 189 185 184 207 216 207
230 231 232 233 233 233 233 233 231 228 226 224 221 219 218 218 217 216 214 213 214 214 214 212 210 210 209 208 206 204 202 203 205 205 205 203 196 194 196 205 210 205 200 197 198 204 204 200 206 219 211 198
228 227 228 230 231 232 232 232 231 230 229 227 224 222 221 220 218 217 216 214 213 211 211 212 212 211 210 209 208 206 205 207 211 211 206 199 194 191 191 197 205 207 203 197 200 208 211 217 226 224 212 205
Height
1555 1556 1557 1559 1560 1562 1564 1565 1565 1566 1567 1567 1568 1568 1568 1568 1568 1569 1569 1570 1570 1570 1570 1570 1571 1572 1572 1572 1572 1573 1573 1573 1574 1574 1574 1575 1575 1576 1576 1577 1578 1579 1579 1579 1580 1580 1581 1581 1582 1582 1583 1583
1554 1555 1557 1558 1559 1561 1563 1563 1564 1565 1566 1566 1567 1566 1566 1566 1567 1568 1569 1570 1570 1570 1570 1570 1570 1571 1571 1571 1572 1572 1572 1572 1573 1573 1573 1573 1574 1575 1576 1577 1577 1578 1579 1579 1580 1580 1581 1581 1582 1582 1583 1583
1554 1555 1556 1557 1559 1560 1562 1562 1563 1564 1565 1565 1565 1565 1565 1565 1566 1567 1568 1569 1569 1570 1570 1570 1570 1570 1570 1571 1571 1571 1571 1572 1572 1572 1572 1572 1573 1574 1575 1576 1577 1578 1579 1579 1580 1580 1581 1581 1581 1582 1583 1583
1553 1555 1555 1557 1558 1559 1560 1561 1562 1563 1563 1564 1564 1564 1564 1565 1566 1567 1567 1568 1568 1569 1570 1570 1569 1569 1569 1570 1570 1571 1571 1571 1571 1571 1571 1571 1572 1572 1574 1575 1576 1577 1578 1579 1579 1580 1580 1581 1581 1582 1582 1583
1552 1554 1555 1556 1557 1558 1559 1560 1560 1561 1562 1562 1562 1563 1564 1565 1565 1566 1566 1567 1567 1568 1569 1569 1568 1568 1568 1569 1569 1570 1570 1570 1570 1570 1570 1570 1571 1572 1573 1574 1575 1576 1577 1578 1578 1579 1580 1580 1581 1581 1582 1582
1551 1552 1553 1554 1555 1556 1557 1558 1559 1560 1561 1561 1562 1562 1563 1564 1564 1564 1565 1565 1566 1567 1568 1568 1568 1568 1568 1568 1569 1569 1569 1570 1569 1569 1570 1570 1570 1571 1572 1573 1574 1575 1576 1577 1577 1578 1579 1580 1580 1581 1581 1582
1549 1550 1551 1552 1553 1554 1555 1556 1557 1558 1559 1560 1561 1561 1562 1562 1562 1563 1563 1564 1565 1566 1567 1567 1567 1567 1567 1567 1567 1568 1568 1569 1569 1569 1569 1569 1570 1570 1571 1572 1573 1574 1575 1576 1576 1577 1578 1579 1579 1580 1580 1581
1546 1548 1548 1549 1551 1552 1552 1553 1554 1555 1557 1558 1559 1560 1561 1561 1561 1562 1563 1563 1564 1564 1565 1566 1566 1566 1566 1566 1566 1566 1567 1567 1568 1568 1568 1568 1569 1570 1570 1571 1572 1573 1574 1574 1575 1576 1577 1577 1578 1579 1580 1580
1544 1545 1546 1547 1548 1549 1550 1551 1552 1554 1555 1556 1557 1558 1559 1560 1560 1561 1561 1562 1563 1563 1564 1565 1565 1565 1565 1564 1565 1565 1565 1566 1566 1567 1567 1567 1568 1569 1570 1570 1571 1572 1573 1573 1574 1575 1575 1576 1577 1578 1579 1579
1542 1542 1542 1544 1545 1547 1548 1549 1551 1552 1553 1555 1556 1557 1558 1559 1559 1560 1560 1561 1561 1562 1562 1563 1564 1563 1563 1563 1563 1563 1564 1564 1565 1565 1566 1566 1567 1568 1568 1569 1570 1571 1572 1572 1573 1574 1574 1575 1576 1577 1578 1578
1540 1541 1541 1542 1543 1544 1546 1548 1549 1550 1552 1553 1555 1556 1556 1557 1558 1558 1559 1560 1560 1560 1561 1561 1562 1561 1561 1561 1561 1562 1562 1563 1563 1564 1565 1565 1566 1567 1567 1568 1569 1570 1571 1571 1572 1573 1573 1574 1575 1576 1577 1577
1538 1540 1541 1542 1542 1542 1544 1546 1547 1548 1550 1551 1552 1554 1555 1556 1557 1557 1558 1558 1559 1559 1560 1560 1560 1559 1559 1559 1559 1560 1561 1561 1562 1563 1564 1565 1565 1566 1567 1567 1568 1569 1570 1571 1571 1572 1572 1573 1574 1575 1576 1576
1537 1538 1540 1541 1541 1541 1542 1543 1544 1546 1547 1549 1550 1551 1553 1554 1555 1556 1557 1557 1557 1558 1558 1558 1558 1558 1557 1557 1558 1558 1559 1560 1561 1562 1563 1564 1564 1565 1566 1566 1567 1568 1569 1570 1570 1571 1571 1572 1573 1574 1575 1576
1537 1538 1539 1539 1539 1540 1540 1541 1542 1543 1545 1546 1547 1548 1550 1552 1553 1555 1555 1555 1556 1556 1557 1557 1557 1556 1556 1556 1556 1557 1558 1559 1560 1561 1561 1562 1563 1564 1565 1566 1566 1567 1568 1569 1570 1570 1571 1571 1572 1573 1574 1575
1536 1537 1537 1537 1537 1537 1538 1538 1539 1541 1542 1544 1545 1546 1548 1550 1552 1553 1554 1554 1555 1555 1556 1556 1555 1555 1555 1555 1555 1556 1557 1558 1559 1560 1561 1562 1563 1563 1564 1565 1566 1567 1568 1568 1569 1569 1570 1570 1571 1571 1572 1573
1533 1534 1534 1535 1534 1533 1534 1535 1537 1538 1539 1540 1542 1544 1546 1548 1549 1551 1552 1553 1554 1554 1554 1554 1554 1554 1554 1554 1554 1555 1556 1556 1557 1559 1560 1561 1562 1562 1564 1564 1565 1566 1567 1568 1568 1569 1569 1569 1569 1570 1571 1571
1531 1531 1531 1532 1532 1531 1531 1532 1533 1535 1537 1538 1539 1541 1544 1545 1547 1549 1550 1552 1553 1553 1553 1553 1553 1553 1553 1553 1554 1554 1555 1555 1556 1557 1559 1560 1560 1561 1562 1563 1564 1565 1566 1567 1567 1568 1568 1568 1568 1569 1569 1570
1529 1528 1528 1528 1529 1530 1530 1529 1531 1533 1535 1537 1537 1539 1542 1543 1545 1547 1548 1550 1551 1552 1552 1552 1552 1552 1552 1553 1553 1553 1554 1555 1555 1556 1558 1559 1559 1560 1561 1562 1563 1564 1565 1566 1566 1567 1567 1567 1567 1567 1568 1568
1530 1528 1527 1525 1525 1527 1528 1529 1531 1533 1534 1536 1536 1537 1540 1541 1542 1544 1545 1547 1548 1550 1550 1550 1550 1551 1551 1551 1552 1552 1553 1554 1555 1556 1557 1558 1559 1559 1560 1561 1562 1563 1564 1564 1565 1566 1566 1566 1566 1566 1566 1567
1530 1530 1529 1528 1526 1525 1525 1527 1529 1531 1532 1533 1535 1536 1537 1538 1539 1541 1543 1544 1546 1547 1547 1548 1548 1549 1549 1550 1550 1551 1551 1552 1553 1555 1556 1558 1558 1558 1559 1560 1561 1562 1563 1563 1564 1565 1565 1565 1565 1565 1566 1566
1528 1529 1529 1529 1529 1528 1527 1528 1529 1531 1530 1530 1532 1534 1535 1536 1537 1538 1540 1541 1543 1544 1545 1546 1547 1547 1547 1548 1548 1549 1550 1551 1552 1553 1555 1557 1557 1557 1558 1558 1559 1560 1561 1561 1563 1564 1564 1564 1564 1564 1564 1565
1526 1527 1528 1528 1529 1529 1529 1528 1527 1526 1526 1527 1530 1532 1533 1534 1535 1536 1538 1540 1541 1542 1543 1544 1545 1546 1546 1547 1547 1548 1549 1550 1551 1552 1554 1556 1556 1556 1556 1557 1557 1558 1559 1559 1560 1562 1562 1562 1563 1563 1563 1564
1525 1525 1526 1527 1527 1527 1527 1527 1524 1521 1520 1523 1528 1530 1531 1532 1533 1534 1536 1538 1540 1540 1542 1543 1544 1544 1544 1545 1546 1546 1547 1549 1549 1550 1552 1554 1554 1554 1555 1555 1555 1556 1557 1557 1558 1559 1560 1560 1561 1561 1562 1562
1523 1523 1524 1525 1525 1525 1526 1525 1525 1524 1523 1523 1525 1526 1527 1528 1530 1532 1533 1535 1537 1538 1540 1541 1542 1542 1542 1543 1543 1544 1545 1547 1547 1548 1550 1552 1553 1553 1553 1553 1554 1554 1555 1556 1557 1558 1559 1559 1559 1560 1561 1561
1520 1521 1522 1524 1524 1525 1525 1524 1525 1526 1526 1524 1524 1524 1526 1527 1529 1530 1530 1532 1534 1535 1536 1538 1540 1540 1540 1540 1540 1541 1542 1544 1545 1547 1548 1550 1551 1551 1552 1552 1552 1553 1554 1555 1555 1556 1557 1558 1558 1559 1560 1561
1518 1519 1520 1522 1523 1523 1524 1523 1523 1524 1524 1524 1525 1526 1528 1528 1529 1529 1529 1530 1532 1533 1534 1535 1537 1539 1539 1539 1539 1540 1541 1542 1543 1544 1546 1547 1549 1549 1550 1550 1551 1551 1553 1554 1555 1555 1555 1556 1557 1558 1559 1559
1515 1517 1518 1519 1520 1521 1521 1521 1522 1523 1524 1526 1526 1527 1527 1528 1529 1530 1530 1529 1530 1531 1532 1533 1535 1538 1540 1540 1541 1541 1541 1541 1543 1544 1544 1545 1546 1548 1549 1550 1550 1551 1552 1553 1554 1555 1555 1555 1556 1557 1557 1557
1513 1514 1515 1517 1518 1519 1519 1519 1520 1522 1523 1524 1525 1525 1525 1526 1527 1528 1528 1529 1530 1531 1532 1533 1535 1537 1539 1540 1540 1541 1541 1541 1542 1543 1543 1544 1545 1546 1548 1549 1549 1550 1551 1552 1553 1553 1554 1554 1555 1556 1555 1555
1511 1512 1513 1514 1515 1516 1517 1518 1518 1519 1519 1520 1520 1521 1522 1523 1524 1524 1525 1527 1529 1530 1531 1532 1532 1533 1535 1536 1538 1539 1539 1540 1541 1542 1542 1542 1543 1544 1547 1548 1549 1550 1551 1551 1551 1551 1552 1553 1554 1553 1553 1554
1509 1510 1511 1512 1512 1513 1514 1515 1516 1517 1517 1517 1518 1519 1519 1520 1521 1523 1524 1525 1527 1528 1530 1530 1530 1530 1532 1534 1536 1537 1538 1539 1539 1540 1541 1541 1541 1543 1545 1547 1549 1550 1550 1550 1551 1551 1550 1550 1551 1551 1551 1553
1507 1508 1509 1510 1511 1511 1512 1513 1513 1515 1515 1516 1517 1518 1518 1519 1520 1521 1523 1523 1524 1526 1528 1530 1530 1530 1531 1534 1536 1538 1538 1539 1539 1540 1540 1540 1541 1542 1544 1546 1548 1549 1549 1549 1550 1550 1549 1549 1549 1549 1550 1551